Time,TemperatureF,DewpointF,PressureIn,WindDirection,WindDirectionDegrees,WindSpeedMPH,WindSpeedGustMPH,Humidity,HourlyPrecipIn,Conditions,Clouds,dailyrainin,SolarRadiationWatts/m^2,SoftwareType,DateUTC
2013-09-26 00:22:00,75.0,37.0,-100.00,WNW,285,11.0,16.0,25,-99.99,,,-99.99,0.000000,,2013-09-26 06:22:00,
2013-09-26 00:42:00,74.0,36.0,-100.00,WNW,285,11.0,17.0,24,-99.99,,,-99.99,0.000000,,2013-09-26 06:42:00,
2013-09-26 02:22:00,74.0,35.0,-100.00,West,271,15.0,23.0,23,-99.99,,,-99.99,0.000000,,2013-09-26 08:22:00,
2013-09-26 02:42:00,75.0,35.0,-100.00,West,273,17.0,26.0,23,-99.99,,,-99.99,0.000000,,2013-09-26 08:42:00,
2013-09-26 02:52:00,74.0,35.0,-100.00,West,268,17.0,28.0,23,-99.99,,,-99.99,0.000000,,2013-09-26 08:52:00,
2013-09-26 03:11:00,74.0,34.0,-100.00,West,274,17.0,26.0,23,-99.99,,,-99.99,0.000000,,2013-09-26 09:11:00,
2013-09-26 03:43:00,74.0,34.0,-100.00,West,280,16.0,27.0,23,-99.99,,,-99.99,0.000000,,2013-09-26 09:43:00,
2013-09-26 04:42:00,72.0,34.0,-100.00,WNW,284,16.0,25.0,24,-99.99,,,-99.99,0.000000,,2013-09-26 10:42:00,
2013-09-26 04:53:00,72.0,34.0,-100.00,WNW,284,17.0,27.0,24,-99.99,,,-99.99,0.000000,,2013-09-26 10:53:00,
2013-09-26 05:02:00,72.0,34.0,-100.00,WNW,284,17.0,27.0,24,-99.99,,,-99.99,0.000000,,2013-09-26 11:02:00,
2013-09-26 05:52:00,70.0,33.0,-100.00,WNW,284,18.0,33.0,25,-99.99,,,-99.99,0.000000,,2013-09-26 11:52:00,
2013-09-26 06:02:00,70.0,33.0,-100.00,WNW,284,18.0,33.0,25,-99.99,,,-99.99,0.000000,,2013-09-26 12:02:00,
2013-09-26 06:42:00,69.0,33.0,-100.00,WNW,289,18.0,26.0,26,-99.99,,,-99.99,0.000000,,2013-09-26 12:42:00,
2013-09-26 07:52:00,69.0,31.0,-100.00,WNW,282,10.0,20.0,23,-99.99,,,-99.99,33.470001,,2013-09-26 13:52:00,
2013-09-26 08:02:00,69.0,31.0,-100.00,WNW,282,10.0,20.0,23,-99.99,,,-99.99,33.470001,,2013-09-26 14:02:00,
2013-09-26 08:22:00,70.0,32.0,-100.00,WNW,283,10.0,16.0,24,-99.99,,,-99.99,126.910004,,2013-09-26 14:22:00,
2013-09-26 08:42:00,71.0,32.0,-100.00,WNW,285,11.0,18.0,23,-99.99,,,-99.99,165.270004,,2013-09-26 14:42:00,
2013-09-26 09:44:00,72.0,31.0,-100.00,WNW,296,14.0,23.0,22,-99.99,,,-99.99,367.489990,,2013-09-26 15:44:00,
2013-09-26 10:13:00,73.0,32.0,-100.00,West,280,13.0,23.0,22,-99.99,,,-99.99,428.160004,,2013-09-26 16:13:00,
2013-09-26 10:43:00,74.0,33.0,-100.00,WNW,283,9.0,18.0,22,-99.99,,,-99.99,543.219971,,2013-09-26 16:43:00,
2013-09-26 10:53:00,75.0,32.0,-100.00,West,276,8.0,17.0,21,-99.99,,,-99.99,580.179993,,2013-09-26 16:53:00,
2013-09-26 11:04:00,75.0,32.0,-100.00,West,276,8.0,17.0,21,-99.99,,,-99.99,580.179993,,2013-09-26 17:04:00,
2013-09-26 11:52:00,76.0,32.0,-100.00,West,278,10.0,22.0,20,-99.99,,,-99.99,707.099976,,2013-09-26 17:52:00,
2013-09-26 12:02:00,76.0,32.0,-100.00,West,278,10.0,22.0,20,-99.99,,,-99.99,707.099976,,2013-09-26 18:02:00,
2013-09-26 13:43:00,78.0,36.0,-100.00,West,273,8.0,19.0,22,-99.99,,,-99.99,792.869995,,2013-09-26 19:43:00,
2013-09-26 16:14:00,80.0,36.0,-100.00,SSW,209,10.0,16.0,20,-99.99,,,-99.99,598.309998,,2013-09-26 22:14:00,
2013-09-26 16:54:00,81.0,36.0,-100.00,SSW,211,8.0,21.0,20,-99.99,,,-99.99,488.829987,,2013-09-26 22:54:00,
2013-09-26 17:03:00,81.0,36.0,-100.00,SSW,211,8.0,21.0,20,-99.99,,,-99.99,488.829987,,2013-09-26 23:03:00,
2013-09-26 17:42:00,81.0,36.0,-100.00,SW,225,7.0,23.0,20,-99.99,,,-99.99,329.839996,,2013-09-26 23:42:00,
2013-09-26 17:53:00,80.0,37.0,-100.00,SW,231,6.0,13.0,20,-99.99,,,-99.99,290.089996,,2013-09-26 23:53:00,
2013-09-26 18:02:00,80.0,37.0,-100.00,SW,231,6.0,13.0,20,-99.99,,,-99.99,290.089996,,2013-09-27 00:02:00,
2013-09-26 18:22:00,80.0,37.0,-100.00,SW,230,7.0,18.0,21,-99.99,,,-99.99,155.509995,,2013-09-27 00:22:00,
2013-09-26 18:32:00,80.0,37.0,-100.00,SW,230,7.0,18.0,21,-99.99,,,-99.99,155.509995,,2013-09-27 00:32:00,
2013-09-26 21:44:00,76.0,40.0,-100.00,WSW,242,6.0,12.0,27,-99.99,,,-99.99,0.000000,,2013-09-27 03:44:00,
2013-09-26 22:14:00,77.0,40.0,-100.00,WSW,244,6.0,22.0,26,-99.99,,,-99.99,0.000000,,2013-09-27 04:14:00,
2013-09-26 22:44:00,78.0,39.0,-100.00,WSW,253,8.0,20.0,25,-99.99,,,-99.99,0.000000,,2013-09-27 04:44:00,
2013-09-26 23:12:00,76.0,39.0,-100.00,West,266,10.0,16.0,26,-99.99,,,-99.99,0.000000,,2013-09-27 05:12:00,
2013-09-26 23:23:00,76.0,39.0,-100.00,West,266,6.0,13.0,26,-99.99,,,-99.99,0.000000,,2013-09-27 05:23:00,
2013-09-26 23:43:00,76.0,39.0,-100.00,WSW,256,6.0,13.0,26,-99.99,,,-99.99,0.000000,,2013-09-27 05:43:00,